BAG3092 EGLL-EVRA

Flight info

Callsign BAG3092
Flight time N/A
Altitude 39000
Route BPK Q295 SOMVA DCT MAVAS DCT ANDIK N873 JUIST DCT RAXLU DCT LILBI DCT TIDVU DCT KOLJA DCT NINTA DCT ADAXA M405 ORVIX
Aircraft B77W/H-SDE1E2E3FGHIJ2J3J4J5M1RWXY/LB1D1

Departure

Time 2026-05-05 08:13
Airport London Heathrow Airport (EGLL)

Arrival

Time N/A
Airport Riga International Airport (EVRA)
Time Latitude Longitude Altitude Speed Heading
2026-05-05 07:50 51.46961 -0.46478 91 ft 0 kts 55°
2026-05-05 08:02 51.46951 -0.46499 91 ft 4 kts 55°
2026-05-05 08:02 51.46936 -0.46536 94 ft 4 kts 55°
2026-05-05 08:02 51.46924 -0.46566 94 ft 4 kts 85°
2026-05-05 08:02 51.46933 -0.46597 92 ft 4 kts 145°
2026-05-05 08:03 51.46949 -0.46615 91 ft 0 kts 145°
2026-05-05 08:05 51.46949 -0.46614 91 ft 1 kts 145°
2026-05-05 08:05 51.46922 -0.46585 92 ft 9 kts 145°
2026-05-05 08:06 51.46848 -0.46504 99 ft 17 kts 146°
2026-05-05 08:06 51.46749 -0.46340 100 ft 24 kts 98°
2026-05-05 08:06 51.46749 -0.46065 95 ft 25 kts 90°
2026-05-05 08:06 51.46748 -0.45813 96 ft 21 kts 90°
2026-05-05 08:07 51.46748 -0.45573 94 ft 22 kts 90°
2026-05-05 08:07 51.46752 -0.45329 95 ft 22 kts 88°
2026-05-05 08:07 51.46753 -0.45129 95 ft 16 kts 90°
2026-05-05 08:07 51.46752 -0.44953 97 ft 16 kts 90°
2026-05-05 08:08 51.46752 -0.44776 98 ft 16 kts 90°
2026-05-05 08:08 51.46752 -0.44589 95 ft 18 kts 90°
2026-05-05 08:08 51.46753 -0.44382 96 ft 19 kts 89°
2026-05-05 08:08 51.46755 -0.44168 94 ft 21 kts 89°
2026-05-05 08:09 51.46770 -0.43938 94 ft 21 kts 88°
2026-05-05 08:09 51.46771 -0.43710 95 ft 20 kts 85°
2026-05-05 08:09 51.46872 -0.43598 93 ft 20 kts 356°
2026-05-05 08:09 51.47012 -0.43613 90 ft 20 kts
2026-05-05 08:10 51.47150 -0.43583 92 ft 20 kts 30°
2026-05-05 08:10 51.47257 -0.43436 94 ft 20 kts 42°
2026-05-05 08:10 51.47362 -0.43284 94 ft 20 kts 43°
2026-05-05 08:10 51.47465 -0.43128 96 ft 20 kts 43°
2026-05-05 08:11 51.47579 -0.43152 99 ft 15 kts 308°
2026-05-05 08:11 51.47603 -0.43210 98 ft 0 kts 306°
2026-05-05 08:12 51.47616 -0.43227 101 ft 12 kts 323°
2026-05-05 08:12 51.47740 -0.43382 100 ft 26 kts 319°
2026-05-05 08:12 51.47767 -0.43682 96 ft 39 kts 268°
2026-05-05 08:12 51.47763 -0.44522 99 ft 118 kts 270°
2026-05-05 08:13 51.47762 -0.46237 231 ft 178 kts 271°
2026-05-05 08:13 51.47728 -0.48292 1072 ft 188 kts 271°
2026-05-05 08:13 51.47660 -0.50461 1892 ft 202 kts 271°
2026-05-05 08:13 51.47574 -0.52859 2428 ft 229 kts 270°
2026-05-05 08:14 51.47569 -0.55542 2994 ft 251 kts 280°
2026-05-05 08:14 51.47997 -0.58265 3966 ft 251 kts 296°
2026-05-05 08:14 51.48812 -0.60819 4380 ft 261 kts 302°
2026-05-05 08:14 51.49759 -0.63224 4626 ft 237 kts 304°
2026-05-05 08:15 51.50390 -0.64631 5193 ft 234 kts 318°
2026-05-05 08:15 51.51835 -0.65806 5871 ft 245 kts 353°
2026-05-05 08:15 51.53615 -0.65450 5997 ft 269 kts 18°
2026-05-05 08:15 51.55405 -0.64598 5995 ft 267 kts 18°
2026-05-05 08:16 51.56999 -0.63129 5994 ft 268 kts 45°
2026-05-05 08:16 51.58143 -0.60802 6002 ft 265 kts 53°
2026-05-05 08:16 51.59250 -0.58423 6009 ft 266 kts 52°
2026-05-05 08:16 51.60359 -0.56052 6003 ft 264 kts 52°
2026-05-05 08:17 51.61465 -0.53691 6002 ft 264 kts 52°
2026-05-05 08:17 51.62544 -0.51313 6003 ft 262 kts 57°
2026-05-05 08:17 51.63427 -0.48729 6009 ft 264 kts 63°
2026-05-05 08:17 51.64230 -0.46058 6004 ft 266 kts 63°
2026-05-05 08:18 51.65017 -0.43411 6005 ft 266 kts 63°
2026-05-05 08:18 51.65828 -0.40697 5998 ft 265 kts 64°
2026-05-05 08:18 51.66622 -0.38067 5993 ft 264 kts 63°
2026-05-05 08:18 51.67428 -0.35413 5998 ft 263 kts 63°
2026-05-05 08:19 51.68237 -0.32767 6016 ft 263 kts 63°
2026-05-05 08:19 51.69050 -0.30115 6542 ft 265 kts 62°
2026-05-05 08:19 51.69880 -0.27410 7296 ft 279 kts 63°
2026-05-05 08:19 51.70764 -0.24530 7783 ft 287 kts 63°
2026-05-05 08:20 51.71641 -0.21671 9008 ft 284 kts 63°
2026-05-05 08:20 51.72525 -0.18792 10013 ft 289 kts 62°
2026-05-05 08:20 51.73424 -0.15860 10951 ft 293 kts 63°
2026-05-05 08:20 51.74331 -0.12897 12043 ft 295 kts 63°
2026-05-05 08:21 51.75141 -0.09867 13166 ft 297 kts 75°
2026-05-05 08:21 51.75466 -0.06531 14170 ft 303 kts 84°
2026-05-05 08:21 51.75700 -0.03119 15192 ft 308 kts 84°
2026-05-05 08:21 51.75950 0.00306 16233 ft 312 kts 84°
2026-05-05 08:22 51.76219 0.03824 17245 ft 319 kts 84°
2026-05-05 08:22 51.76502 0.07411 18272 ft 326 kts 84°
2026-05-05 08:22 51.76804 0.11149 18811 ft 348 kts 84°
2026-05-05 08:22 51.77130 0.15189 19007 ft 378 kts 84°
2026-05-05 08:23 51.77483 0.19543 19405 ft 400 kts 84°
2026-05-05 08:23 51.77836 0.24058 20150 ft 410 kts 84°
2026-05-05 08:23 51.78191 0.28666 21064 ft 416 kts 84°
2026-05-05 08:23 51.78564 0.33324 22019 ft 420 kts 84°
2026-05-05 08:24 51.78945 0.38026 22939 ft 425 kts 84°
2026-05-05 08:24 51.79331 0.42807 23778 ft 432 kts 84°
2026-05-05 08:24 51.79718 0.47647 24473 ft 438 kts 84°
2026-05-05 08:24 51.80105 0.52508 25127 ft 445 kts 85°
2026-05-05 08:25 51.80499 0.57509 25788 ft 451 kts 85°
2026-05-05 08:25 51.80974 0.62557 26422 ft 459 kts 80°
2026-05-05 08:25 51.81771 0.67608 26959 ft 469 kts 74°
2026-05-05 08:25 51.82922 0.72578 27588 ft 475 kts 68°
2026-05-05 08:26 51.84274 0.77477 28255 ft 480 kts 67°
2026-05-05 08:26 51.85628 0.82451 28880 ft 484 kts 68°
2026-05-05 08:26 51.86959 0.87488 29456 ft 490 kts 68°
2026-05-05 08:26 51.88280 0.92602 30028 ft 495 kts 68°
2026-05-05 08:27 51.89604 0.97785 30496 ft 499 kts 68°
2026-05-05 08:27 51.90926 1.02985 31005 ft 501 kts 68°
2026-05-05 08:27 51.92251 1.08201 31612 ft 500 kts 68°
2026-05-05 08:27 51.93567 1.13384 32409 ft 493 kts 68°
2026-05-05 08:28 51.94861 1.18481 33327 ft 486 kts 68°
2026-05-05 08:28 51.96137 1.23517 34129 ft 480 kts 68°
2026-05-05 08:28 51.97405 1.28526 34624 ft 480 kts 68°
2026-05-05 08:28 51.98657 1.33490 34977 ft 482 kts 68°
2026-05-05 08:29 51.99928 1.38537 35339 ft 484 kts 68°
2026-05-05 08:29 52.01199 1.43597 35763 ft 484 kts 68°
2026-05-05 08:29 52.02467 1.48654 36177 ft 484 kts 69°
2026-05-05 08:30 52.05008 1.58823 36910 ft 487 kts 69°
2026-05-05 08:30 52.07571 1.69132 36992 ft 493 kts 69°
2026-05-05 08:31 52.10110 1.79388 36984 ft 486 kts 69°
2026-05-05 08:31 52.11376 1.84521 37110 ft 490 kts 69°
2026-05-05 08:31 52.12644 1.89671 37456 ft 491 kts 69°
2026-05-05 08:31 52.13910 1.94832 37895 ft 489 kts 69°
2026-05-05 08:32 52.15174 1.99992 38265 ft 490 kts 69°
2026-05-05 08:32 52.16418 2.05082 38628 ft 490 kts 69°
2026-05-05 08:32 52.17676 2.10242 38950 ft 489 kts 69°
2026-05-05 08:33 52.20207 2.20660 38994 ft 496 kts 69°
2026-05-05 08:33 52.22720 2.31054 38982 ft 488 kts 69°
2026-05-05 08:34 52.25195 2.41343 38988 ft 486 kts 69°
2026-05-05 08:34 52.27660 2.51637 38984 ft 487 kts 69°
2026-05-05 08:35 52.30124 2.61966 38992 ft 489 kts 69°
2026-05-05 08:35 52.32213 2.72469 38995 ft 490 kts 75°
2026-05-05 08:36 52.34071 2.83236 38990 ft 492 kts 75°
2026-05-05 08:36 52.35950 2.94075 38998 ft 499 kts 75°
2026-05-05 08:37 52.37877 3.05080 38987 ft 505 kts 75°
2026-05-05 08:37 52.39798 3.16094 38987 ft 508 kts 75°
2026-05-05 08:38 52.41712 3.27232 38981 ft 508 kts 75°
2026-05-05 08:38 52.43605 3.38372 38980 ft 506 kts 75°
2026-05-05 08:39 52.45481 3.49479 38973 ft 504 kts 75°
2026-05-05 08:39 52.47342 3.60548 38988 ft 503 kts 75°
2026-05-05 08:40 52.49189 3.71607 38977 ft 502 kts 75°
2026-05-05 08:40 52.51025 3.82667 38977 ft 502 kts 75°
2026-05-05 08:41 52.52854 3.93763 38982 ft 503 kts 75°
2026-05-05 08:41 52.54662 4.04799 38969 ft 503 kts 75°
2026-05-05 08:42 52.56473 4.15927 38978 ft 504 kts 76°
2026-05-05 08:42 52.58277 4.27084 38971 ft 505 kts 76°
2026-05-05 08:43 52.60074 4.38273 38976 ft 506 kts 76°
2026-05-05 08:43 52.61864 4.49493 38973 ft 507 kts 76°
2026-05-05 08:44 52.63644 4.60725 38970 ft 507 kts 76°
2026-05-05 08:44 52.65416 4.71984 38968 ft 507 kts 76°
2026-05-05 08:45 52.67166 4.83182 38983 ft 507 kts 76°
2026-05-05 08:45 52.68914 4.94443 38972 ft 508 kts 76°
2026-05-05 08:46 52.70653 5.05725 38963 ft 507 kts 76°
2026-05-05 08:46 52.72384 5.17013 38970 ft 507 kts 76°
2026-05-05 08:47 52.74892 5.27876 38979 ft 507 kts 62°
2026-05-05 08:47 52.78734 5.37621 38977 ft 506 kts 51°
2026-05-05 08:48 52.83134 5.46719 38969 ft 507 kts 51°
2026-05-05 08:48 52.87482 5.55839 38973 ft 507 kts 51°
2026-05-05 08:49 52.91814 5.65089 38976 ft 508 kts 51°
2026-05-05 08:49 52.96129 5.74374 38980 ft 508 kts 52°
2026-05-05 08:50 53.00448 5.83693 38984 ft 509 kts 52°
2026-05-05 08:50 53.04771 5.93047 38985 ft 509 kts 52°
2026-05-05 08:51 53.09076 6.02393 38985 ft 509 kts 52°
2026-05-05 08:51 53.13363 6.11731 38990 ft 510 kts 51°
2026-05-05 08:52 53.17668 6.21129 38977 ft 510 kts 52°
2026-05-05 08:52 53.21965 6.30546 38978 ft 510 kts 52°
2026-05-05 08:53 53.26250 6.39976 38969 ft 510 kts 52°
2026-05-05 08:53 53.30502 6.49366 38972 ft 510 kts 52°
2026-05-05 08:54 53.34854 6.58720 38966 ft 509 kts 47°
2026-05-05 08:54 53.39924 6.66962 38974 ft 507 kts 40°
2026-05-05 08:55 53.45206 6.74839 38964 ft 508 kts 41°
2026-05-05 08:55 53.50425 6.82852 38975 ft 509 kts 41°
2026-05-05 08:56 53.55481 6.91183 38995 ft 510 kts 47°
2026-05-05 08:56 53.59684 7.00827 38984 ft 512 kts 57°
2026-05-05 08:57 53.63390 7.11105 38959 ft 513 kts 58°
2026-05-05 08:57 53.67056 7.21383 38971 ft 514 kts 58°
2026-05-05 08:58 53.70769 7.31704 38949 ft 514 kts 58°
2026-05-05 08:58 53.74491 7.42010 38979 ft 514 kts 58°
2026-05-05 08:59 53.78214 7.52349 38981 ft 515 kts 58°
2026-05-05 08:59 53.81929 7.62717 38983 ft 515 kts 58°
2026-05-05 09:00 53.84896 7.71030 38968 ft 515 kts 58°
2026-05-05 09:00 53.88597 7.81446 38980 ft 516 kts 58°
2026-05-05 09:01 53.92882 7.93556 38978 ft 516 kts 58°
2026-05-05 09:01 53.95968 8.02316 38975 ft 516 kts 58°
2026-05-05 09:02 53.99640 8.12780 38972 ft 516 kts 58°
2026-05-05 09:02 54.03285 8.23208 38976 ft 516 kts 58°
2026-05-05 09:03 54.06950 8.33741 38966 ft 517 kts 58°
2026-05-05 09:03 54.10600 8.44276 38967 ft 517 kts 59°
2026-05-05 09:04 54.14254 8.54866 38968 ft 517 kts 59°
2026-05-05 09:04 54.17890 8.65449 38957 ft 517 kts 59°
2026-05-05 09:05 54.21517 8.76053 38964 ft 517 kts 59°
2026-05-05 09:05 54.25142 8.86699 38970 ft 518 kts 59°
2026-05-05 09:06 54.28733 8.97289 38955 ft 518 kts 59°
2026-05-05 09:06 54.32339 9.07969 38953 ft 518 kts 59°
2026-05-05 09:07 54.35939 9.18679 38951 ft 518 kts 59°
2026-05-05 09:07 54.39525 9.29392 38963 ft 518 kts 59°
2026-05-05 09:08 54.43108 9.40145 38967 ft 519 kts 59°
2026-05-05 09:08 54.46659 9.50851 38967 ft 519 kts 60°
2026-05-05 09:09 54.50230 9.61661 38967 ft 520 kts 60°
2026-05-05 09:09 54.53795 9.72503 38959 ft 520 kts 60°
2026-05-05 09:10 54.57349 9.83361 38968 ft 520 kts 60°
2026-05-05 09:10 54.60900 9.94258 38984 ft 521 kts 60°
2026-05-05 09:11 54.64445 10.05188 38975 ft 521 kts 60°
2026-05-05 09:11 54.67957 10.16061 38969 ft 521 kts 60°
2026-05-05 09:12 54.71320 10.26582 38969 ft 521 kts 62°
2026-05-05 09:12 54.74238 10.38073 38972 ft 521 kts 68°
2026-05-05 09:13 54.76903 10.49749 38967 ft 521 kts 68°
2026-05-05 09:13 54.79567 10.61426 38970 ft 521 kts 68°
2026-05-05 09:14 54.82260 10.73112 38978 ft 522 kts 68°
2026-05-05 09:14 54.84943 10.84744 38970 ft 522 kts 68°
2026-05-05 09:15 54.87632 10.96469 38958 ft 522 kts 68°
2026-05-05 09:15 54.90305 11.08202 38966 ft 522 kts 68°
2026-05-05 09:16 54.92967 11.19955 38968 ft 522 kts 68°
2026-05-05 09:16 54.95619 11.31731 38967 ft 523 kts 69°
2026-05-05 09:17 54.98259 11.43519 38966 ft 523 kts 69°
2026-05-05 09:17 55.00892 11.55343 38962 ft 523 kts 69°
2026-05-05 09:18 55.03499 11.67118 38965 ft 524 kts 69°
2026-05-05 09:18 55.06114 11.78995 38968 ft 524 kts 69°
2026-05-05 09:19 55.08718 11.90886 38962 ft 525 kts 69°
2026-05-05 09:19 55.11315 12.02821 38961 ft 525 kts 69°
2026-05-05 09:20 55.13898 12.14756 38963 ft 525 kts 69°
2026-05-05 09:20 55.16472 12.26719 38957 ft 525 kts 69°
2026-05-05 09:21 55.19033 12.38697 38967 ft 526 kts 69°
2026-05-05 09:21 55.21569 12.50623 38961 ft 526 kts 69°
2026-05-05 09:22 55.24113 12.62649 38962 ft 526 kts 69°
2026-05-05 09:22 55.26585 12.74721 38960 ft 526 kts 71°
2026-05-05 09:23 55.28799 12.86945 38959 ft 526 kts 73°
2026-05-05 09:23 55.30973 12.99195 38962 ft 526 kts 73°
2026-05-05 09:24 55.33178 13.11447 38961 ft 526 kts 72°
2026-05-05 09:24 55.35376 13.23629 38946 ft 526 kts 72°
2026-05-05 09:25 55.36120 13.27768 38947 ft 526 kts 72°